GW1931 Weather Reports


Display with metric or nautical units.
time (UTC)temp
F
wind
direction
speed
MPH
gust
MPH
rain 1hr
in
rain 24hr
in
rain mn
in
humidity
%
barometer
mb
20260831020746 87 147 0.0 1.0 0.00 0.00 0.00 64 1016.7
20260831013744 89 108 1.0 1.0 0.00 0.00 0.00 59 1016.7
20260831010742 91 123 0.0 1.0 0.00 0.00 0.00 55 1016.3
20260831003737 92 96 1.0 3.0 0.00 0.00 0.00 53 1016.3
20260831000732 95 117 0.0 2.0 0.00 0.00 0.00 50 1016.1
20260830233730 97 125 0.0 2.0 0.00 0.00 0.00 45 1016.0
20260830230725 99 156 2.0 2.0 0.00 0.00 0.00 44 1016.1
20260830223724 99 120 1.0 2.0 0.00 0.00 0.00 45 1016.1
20260830220720 100 96 1.0 2.0 0.00 0.00 0.00 45 1016.3
20260830213719 100 138 0.0 2.0 0.00 0.00 0.00 44 1016.6
20260830210718 100 156 2.0 5.0 0.00 0.00 0.00 45 1016.7
20260830203717 99 159 1.0 3.0 0.00 0.00 0.00 47 1017.4
20260830200715 100 137 1.0 3.0 0.00 0.00 0.00 46 1017.7
20260830193713 98 102 1.0 5.0 0.00 0.00 0.00 47 1018.3
20260830190713 98 147 1.0 3.0 0.00 0.00 0.00 48 1018.9
20260830183713 97 151 1.0 3.0 0.00 0.00 0.00 53 1019.0
20260830180713 97 148 0.0 2.0 0.00 0.00 0.00 51 1019.9
20260830173710 95 92 2.0 2.0 0.00 0.00 0.00 56 1020.3
20260830170707 95 105 1.0 2.0 0.00 0.00 0.00 59 1020.3
20260830163707 91 125 2.0 2.0 0.00 0.00 0.00 65 1020.6
20260830160702 91 139 0.0 2.0 0.00 0.00 0.00 71 1020.7
20260830153659 91 260 2.0 3.0 0.00 0.00 0.00 72 1020.7
20260830150659 89 124 1.0 2.0 0.00 0.00 0.00 78 1020.6
20260830143659 85 140 0.0 1.0 0.00 0.00 0.00 87 1020.8
20260830140655 86 158 1.0 2.0 0.00 0.00 0.00 85 1020.6
20260830133650 84 126 0.0 0.0 0.00 0.00 0.00 90 1020.3
20260830130648 79 108 0.0 0.0 0.00 0.00 0.00 99 1020.1
20260830123645 76 109 0.0 0.0 0.00 0.00 0.00 99 1020.0
20260830120640 75 109 0.0 0.0 0.00 0.00 0.00 99 1019.8
20260830113638 75 110 0.0 0.0 0.00 0.00 0.00 99 1019.5
20260830110633 76 110 0.0 0.0 0.00 0.00 0.00 99 1019.4
20260830103629 76 117 0.0 0.0 0.00 0.00 0.00 99 1019.1
20260830100626 76 117 0.0 0.0 0.00 0.00 0.00 99 1019.1
20260830093626 77 136 0.0 0.0 0.00 0.00 0.00 99 1019.0
20260830090626 77 135 0.0 0.0 0.00 0.00 0.00 98 1018.7
20260830083626 77 140 0.0 0.0 0.00 0.00 0.00 98 1019.0
20260830080623 78 135 0.0 0.0 0.00 0.00 0.00 97 1019.0
20260830073619 78 139 0.0 0.0 0.00 0.00 0.00 96 1019.2
20260830070615 79 127 1.0 2.0 0.00 0.00 0.00 95 1019.1
20260830063614 79 144 0.0 0.0 0.00 0.00 0.00 93 1019.2
20260830060614 80 136 0.0 1.0 0.00 0.00 0.00 91 1019.2
20260830053609 80 158 0.0 0.0 0.00 0.00 0.00 89 1019.1
20260830050606 82 130 0.0 1.0 0.00 0.00 0.00 86 1019.2
20260830043603 82 137 0.0 1.0 0.00 0.01 0.01 85 1019.1
20260830040601 83 164 0.0 0.0 0.00 0.01 0.01 83 1019.0
20260830033557 85 119 1.0 2.0 0.00 0.01 0.01 80 1018.9
20260830030556 86 197 0.0 1.0 0.00 0.01 0.01 77 1018.8
20260830023553 86 125 0.0 1.0 0.00 0.01 0.01 75 1018.2